Location: Dzierzno
(50.6159°N, 19.2852°E)
Time: 20:21:03
(UTC+00:00)

Nadezhda 4 Rocket - Pass Details

Date: 18 November 2025
Orbit: 948 x 991 km, 82.9° (Epoch: 10 December)

Event Time Altitude Azimuth Distance (km) Brightness Sun altitude
Rises 16:49:39 0° 350° (N) 3,708 7.1 -18.2°
Reaches altitude 10° 16:52:12 10° 351° (N) 2,751 6.4 -18.6°
Maximum altitude 16:58:32 86° 81° (E) 986 3.9 -19.6°
Drops below altitude 10° 17:04:45 10° 171° (S) 2,703 6.3 -20.6°
Sets 17:07:13 0° 171° (S) 3,640 7.0 -21.0°
